Weather History for Eastman, GA

Change the Weather History Date:

Thursday, June 20, 2013

  Actual Average Record
Temperature  
Mean Temperature 80 °F -  
Max Temperature 89 °F 90 °F 93 °F (2014)
Min Temperature 72 °F 68 °F 68 °F (2014)
Cooling Degree Days 16    
Growing Degree Days 30 (Base 50)    
Moisture  
Dew Point 74 °F    
Average Humidity 83    
Maximum Humidity 100    
Minimum Humidity 59    
Precipitation  
Precipitation 0.00 in - - ()
Sea Level Pressure  
Sea Level Pressure 30.13 in    
Wind  
Wind Speed 4 mph (ENE)    
Max Wind Speed 15 mph    
Max Gust Speed 20 mph    
Visibility 8 miles    
Events      
Averages and records for this station are not official NWS values.
T = Trace of Precipitation, MM = Missing Value Source: NWS Daily Summary

Daily Weather History Graph

Daily Weather History Graph

Search for Another Location

Airport:

Trip Planner

Search our weather history database for the weather conditions in past years. The results will help you decide how hot, cold, wet, or windy it might be!

Date:

Astronomy

Jun. 20, 2013 Rise Set
Actual Time 6:26 AM EDT 8:42 PM EDT
Civil Twilight 5:57 AM EDT 9:10 PM EDT
Nautical Twilight 5:23 AM EDT 9:45 PM EDT
Astronomical Twilight 4:45 AM EDT 10:22 PM EDT
Moon 5:48 PM EDT (6/20) 3:44 AM EDT (6/20)
Length of Visible Light 15h 12m
Length of Day
14h 15m
Waxing Gibbous, 89% of the Moon is Illuminated
Jun 20
Waxing Gibbous
Jun 23
Full
Jun 30
Last Quarter
Jul 8
New
Jul 15
First Quarter

Hourly Weather History & Observations

Time (EDT) Temp. Heat Index Dew Point Humidity Pressure Visibility Wind Dir Wind Speed Gust Speed Precip Events Conditions
12:15 AM 76.1 °F - 74.3 °F 94% 30.08 in 10.0 mi Calm Calm - N/A   Clear
12:35 AM 75.9 °F - 74.3 °F 95% 30.08 in 10.0 mi East 3.5 mph - N/A   Clear
12:55 AM 75.7 °F - 74.3 °F 95% 30.07 in 10.0 mi East 4.6 mph - N/A   Clear
1:15 AM 75.6 °F - 74.3 °F 96% 30.07 in 10.0 mi Calm Calm - N/A   Clear
1:35 AM 75.2 °F - 74.3 °F 97% 30.08 in 10.0 mi Calm Calm - N/A   Scattered Clouds
1:55 AM 75.2 °F - 74.3 °F 97% 30.08 in 10.0 mi Calm Calm - N/A   Mostly Cloudy
2:15 AM 74.8 °F - 73.9 °F 97% 30.07 in 10.0 mi Calm Calm - N/A   Scattered Clouds
2:35 AM 74.3 °F - 73.9 °F 99% 30.07 in 7.0 mi Calm Calm - N/A   Scattered Clouds
2:55 AM 73.9 °F - 73.8 °F 99% 30.07 in 7.0 mi Calm Calm - N/A   Mostly Cloudy
3:15 AM 73.4 °F - 73.4 °F 100% 30.07 in 5.0 mi Calm Calm - N/A   Overcast
3:35 AM 73.2 °F - 73.2 °F 100% 30.07 in 4.0 mi Calm Calm - N/A   Overcast
3:55 AM 73.4 °F - 73.4 °F 100% 30.07 in 4.0 mi Calm Calm - N/A   Scattered Clouds
4:15 AM 72.7 °F - 72.7 °F 100% 30.07 in 1.5 mi Calm Calm - N/A   Mist
4:35 AM 72.5 °F - 72.5 °F 100% 30.07 in 1.5 mi Calm Calm - N/A   Mist
4:55 AM 72.7 °F - 72.7 °F 100% 30.07 in 3.0 mi Calm Calm - N/A   Clear
5:15 AM 72.9 °F - 72.9 °F 100% 30.07 in 2.5 mi NNE 3.5 mph - N/A   Clear
5:35 AM 73.6 °F - 73.6 °F 100% 30.08 in 5.0 mi NNE 4.6 mph - N/A   Clear
5:55 AM 74.1 °F - 74.1 °F 100% 30.09 in 5.0 mi NNE 4.6 mph - N/A   Scattered Clouds
6:15 AM 74.1 °F - 74.1 °F 100% 30.10 in 5.0 mi NNE 3.5 mph - N/A   Mostly Cloudy
6:35 AM 74.5 °F - 74.3 °F 99% 30.11 in 5.0 mi NE 4.6 mph - N/A   Overcast
6:55 AM 74.7 °F - 74.3 °F 99% 30.12 in 5.0 mi ENE 5.8 mph - N/A   Overcast
7:15 AM 74.7 °F - 74.3 °F 99% 30.12 in 5.0 mi NE 3.5 mph - N/A   Overcast
7:35 AM 75.2 °F - 74.5 °F 98% 30.12 in 5.0 mi NE 6.9 mph - N/A   Overcast
7:55 AM 75.2 °F - 74.5 °F 98% 30.13 in 5.0 mi NE 4.6 mph - N/A   Overcast
8:15 AM 75.4 °F - 74.5 °F 97% 30.14 in 7.0 mi NE 8.1 mph - N/A   Overcast
8:35 AM 75.7 °F - 74.3 °F 95% 30.15 in 7.0 mi NE 6.9 mph - N/A   Overcast
8:55 AM 76.6 °F - 74.5 °F 93% 30.15 in 7.0 mi NE 5.8 mph - N/A   Overcast
9:15 AM 77.0 °F - 74.7 °F 92% 30.16 in 7.0 mi NE 5.8 mph - N/A   Overcast
9:35 AM 77.2 °F - 74.5 °F 91% 30.16 in 7.0 mi NNE 6.9 mph - N/A   Overcast
9:55 AM 78.3 °F - 74.7 °F 89% 30.16 in 10.0 mi ENE 6.9 mph - N/A   Overcast
10:15 AM 79.0 °F - 74.5 °F 86% 30.16 in 10.0 mi ENE 8.1 mph - N/A   Overcast
10:35 AM 81.1 °F 87.0 °F 74.7 °F 81% 30.16 in 10.0 mi East 8.1 mph - N/A   Overcast
10:55 AM 81.3 °F 87.4 °F 74.8 °F 81% 30.16 in 10.0 mi ENE 6.9 mph - N/A   Overcast
11:15 AM 82.2 °F 89.1 °F 75.0 °F 79% 30.16 in 10.0 mi NE 6.9 mph - N/A   Overcast
11:35 AM 82.8 °F 89.5 °F 74.5 °F 76% 30.17 in 10.0 mi ENE 9.2 mph - N/A   Overcast
11:55 AM 84.6 °F 92.8 °F 75.0 °F 73% 30.17 in 10.0 mi ENE 9.2 mph - N/A   Overcast
12:15 PM 82.2 °F 88.3 °F 73.9 °F 76% 30.18 in 10.0 mi East 6.9 mph - N/A   Overcast
12:35 PM 82.0 °F 88.1 °F 74.3 °F 77% 30.17 in 10.0 mi East 5.8 mph - N/A   Overcast
12:55 PM 82.9 °F 89.1 °F 73.4 °F 73% 30.17 in 10.0 mi ENE 8.1 mph - N/A   Overcast
1:15 PM 83.7 °F 89.7 °F 73.0 °F 70% 30.17 in 10.0 mi ENE 10.4 mph - N/A   Overcast
1:35 PM 85.5 °F 93.0 °F 73.8 °F 68% 30.16 in 10.0 mi NE 13.8 mph 18.4 mph N/A   Mostly Cloudy
1:55 PM 86.2 °F 93.0 °F 72.7 °F 64% 30.16 in 10.0 mi ENE 15.0 mph 19.6 mph N/A   Scattered Clouds
2:15 PM 87.1 °F 94.5 °F 73.2 °F 63% 30.16 in 10.0 mi ENE 11.5 mph 19.6 mph N/A   Scattered Clouds
2:35 PM 87.3 °F 94.5 °F 73.0 °F 62% 30.16 in 10.0 mi NE 13.8 mph 18.4 mph N/A   Mostly Cloudy
2:55 PM 87.3 °F 94.9 °F 73.4 °F 63% 30.15 in 10.0 mi NE 11.5 mph 18.4 mph N/A   Scattered Clouds
3:15 PM 88.2 °F 96.4 °F 73.6 °F 62% 30.15 in 10.0 mi ENE 10.4 mph - N/A   Scattered Clouds
3:35 PM 86.9 °F 94.5 °F 73.2 °F 64% 30.14 in 10.0 mi ENE 8.1 mph 17.3 mph N/A   Mostly Cloudy
3:55 PM 88.2 °F 96.4 °F 73.6 °F 62% 30.14 in 10.0 mi ENE 8.1 mph - N/A   Scattered Clouds
4:15 PM 89.1 °F 98.5 °F 74.3 °F 62% 30.13 in 10.0 mi ENE 10.4 mph - N/A   Scattered Clouds
4:35 PM 88.2 °F 96.9 °F 73.9 °F 63% 30.13 in 10.0 mi ENE 12.7 mph 16.1 mph N/A   Scattered Clouds
4:55 PM 88.7 °F 96.7 °F 73.2 °F 60% 30.12 in 10.0 mi NE 8.1 mph 16.1 mph N/A   Scattered Clouds
5:15 PM 89.1 °F 97.5 °F 73.8 °F 60% 30.12 in 10.0 mi NE 10.4 mph 17.3 mph N/A   Scattered Clouds
5:35 PM 88.2 °F 96.4 °F 73.6 °F 62% 30.12 in 10.0 mi NE 10.4 mph - N/A   Scattered Clouds
5:55 PM 87.6 °F 94.8 °F 72.7 °F 61% 30.12 in 10.0 mi NE 9.2 mph - N/A   Scattered Clouds
6:15 PM 88.7 °F 96.2 °F 72.5 °F 59% 30.12 in 10.0 mi ENE 10.4 mph - N/A   Clear
6:35 PM 85.6 °F 91.8 °F 72.1 °F 64% 30.12 in 10.0 mi ENE 12.7 mph 17.3 mph N/A   Mostly Cloudy
6:55 PM 84.2 °F 89.9 °F 72.1 °F 67% 30.13 in 10.0 mi ENE 6.9 mph - N/A   Scattered Clouds
7:15 PM 86.2 °F 92.2 °F 72.0 °F 62% 30.12 in 10.0 mi ENE 9.2 mph - N/A   Scattered Clouds
7:35 PM 85.8 °F 91.5 °F 71.2 °F 62% 30.13 in 10.0 mi East 8.1 mph - N/A   Scattered Clouds
7:55 PM 85.1 °F 90.4 °F 71.4 °F 63% 30.13 in 10.0 mi ENE 5.8 mph - N/A   Scattered Clouds
8:15 PM 83.7 °F 89.4 °F 72.5 °F 69% 30.14 in 10.0 mi ESE 11.5 mph - N/A   Scattered Clouds
8:35 PM 79.9 °F - 73.4 °F 80% 30.14 in 10.0 mi SE 6.9 mph - N/A   Scattered Clouds
8:55 PM 78.8 °F - 73.2 °F 83% 30.15 in 10.0 mi SE 4.6 mph - N/A   Clear
9:15 PM 77.9 °F - 73.6 °F 86% 30.15 in 10.0 mi ESE 4.6 mph - N/A   Clear
9:35 PM 77.0 °F - 73.6 °F 89% 30.15 in 10.0 mi ESE 3.5 mph - N/A   Clear
9:55 PM 76.6 °F - 73.8 °F 91% 30.16 in 10.0 mi ESE 3.5 mph - N/A   Clear
10:15 PM 76.1 °F - 73.6 °F 92% 30.17 in 10.0 mi SE 3.5 mph - N/A   Clear
10:35 PM 75.9 °F - 73.8 °F 93% 30.18 in 10.0 mi ESE 3.5 mph - N/A   Scattered Clouds
10:55 PM 75.6 °F - 73.8 °F 94% 30.18 in 10.0 mi ESE 3.5 mph - N/A   Clear
11:15 PM 75.2 °F - 73.8 °F 95% 30.18 in 10.0 mi Calm Calm - N/A   Clear
11:35 PM 75.2 °F - 73.8 °F 95% 30.18 in 10.0 mi Calm Calm - N/A   Clear
11:55 PM 75.6 °F - 74.1 °F 95% 30.18 in 10.0 mi Calm Calm - N/A   Scattered Clouds